Location: Ertinghausen
(51.6624°N, 9.7874°E)
Time: 13:34:38
(UTC+00:00)

CZ-2C R/B - Pass Details

Date: 15 August 2024
Orbit: 703 x 903 km, 98.2° (Epoch: 14 September)

Event Time Altitude Azimuth Distance (km) Brightness Sun altitude
Rises 02:26:18 0° 9° (N) 3,200 7.1 -13.6°
Reaches altitude 10° 02:28:41 10° 1° (N) 2,298 6.1 -13.3°
Maximum altitude 02:33:17 37° 295° (WNW) 1,218 3.9 -12.8°
Enters shadow 02:36:47 17° 238° (WSW) 1,949 4.5 -12.4°
